Time,TemperatureF,DewpointF,PressureIn,WindDirection,WindDirectionDegrees,WindSpeedMPH,WindSpeedGustMPH,Humidity,HourlyPrecipIn,Conditions,Clouds,dailyrainin,SoftwareType,DateUTC
2013-02-08 00:01:00,25.0,12.0,30.05,NNW,334,7.0,-999.0,58,-99.99,,,-99.99,,2013-02-08 07:01:00,
2013-02-08 00:11:00,25.0,12.0,30.05,NNW,334,7.0,-999.0,58,-99.99,,,-99.99,,2013-02-08 07:11:00,
2013-02-08 00:21:00,25.0,12.0,30.05,NNW,334,7.0,-999.0,58,-99.99,,,-99.99,,2013-02-08 07:21:00,
2013-02-08 00:32:00,25.0,12.0,30.05,NNW,334,7.0,-999.0,58,-99.99,,,-99.99,,2013-02-08 07:32:00,
2013-02-08 00:42:00,25.0,12.0,30.05,NNW,334,7.0,-999.0,58,-99.99,,,-99.99,,2013-02-08 07:42:00,
2013-02-08 01:01:00,25.0,11.0,30.04,NW,311,6.0,-999.0,54,-99.99,,,-99.99,,2013-02-08 08:01:00,
2013-02-08 01:03:00,24.0,10.0,30.03,NNW,333,6.0,-999.0,54,-99.99,,,-99.99,,2013-02-08 08:03:00,
2013-02-08 01:11:00,24.0,10.0,30.03,NNW,333,6.0,-999.0,54,-99.99,,,-99.99,,2013-02-08 08:11:00,
2013-02-08 01:21:00,24.0,10.0,30.03,NNW,333,6.0,-999.0,54,-99.99,,,-99.99,,2013-02-08 08:21:00,
2013-02-08 01:32:00,24.0,10.0,30.03,NNW,333,6.0,-999.0,54,-99.99,,,-99.99,,2013-02-08 08:32:00,
2013-02-08 01:42:00,24.0,10.0,30.03,NNW,333,6.0,-999.0,54,-99.99,,,-99.99,,2013-02-08 08:42:00,
2013-02-08 01:52:00,24.0,10.0,30.03,NNW,333,6.0,-999.0,54,-99.99,,,-99.99,,2013-02-08 08:52:00,
2013-02-08 02:32:00,26.0,6.0,29.99,NNW,328,5.0,-999.0,41,-99.99,,,-99.99,,2013-02-08 09:32:00,
2013-02-08 02:42:00,26.0,6.0,29.99,NNW,328,5.0,-999.0,41,-99.99,,,-99.99,,2013-02-08 09:42:00,
2013-02-08 02:52:00,26.0,4.0,29.99,NW,308,5.0,-999.0,38,-99.99,,,-99.99,,2013-02-08 09:52:00,
2013-02-08 03:01:00,26.0,4.0,29.99,NW,308,5.0,-999.0,38,-99.99,,,-99.99,,2013-02-08 10:01:00,
2013-02-08 03:11:00,26.0,4.0,29.99,NW,308,5.0,-999.0,38,-99.99,,,-99.99,,2013-02-08 10:11:00,
2013-02-08 03:22:00,26.0,2.0,29.98,NNW,331,7.0,-999.0,35,-99.99,,,-99.99,,2013-02-08 10:22:00,
2013-02-08 03:31:00,26.0,2.0,29.98,NNW,331,7.0,-999.0,35,-99.99,,,-99.99,,2013-02-08 10:31:00,
2013-02-08 03:42:00,26.0,2.0,29.98,NNW,331,7.0,-999.0,35,-99.99,,,-99.99,,2013-02-08 10:42:00,
2013-02-08 03:52:00,27.0,0.0,29.97,NW,323,4.0,-999.0,31,-99.99,,,-99.99,,2013-02-08 10:52:00,
2013-02-08 04:01:00,27.0,0.0,29.97,NNW,328,5.0,-999.0,31,-99.99,,,-99.99,,2013-02-08 11:01:00,
2013-02-08 04:11:00,27.0,0.0,29.97,NNW,328,5.0,-999.0,31,-99.99,,,-99.99,,2013-02-08 11:11:00,
2013-02-08 04:21:00,27.0,0.0,29.97,NNW,328,5.0,-999.0,31,-99.99,,,-99.99,,2013-02-08 11:21:00,
2013-02-08 04:32:00,26.0,0.0,29.97,NW,321,7.0,-999.0,32,-99.99,,,-99.99,,2013-02-08 11:32:00,
2013-02-08 04:42:00,26.0,0.0,29.97,NW,321,7.0,-999.0,32,-99.99,,,-99.99,,2013-02-08 11:42:00,
2013-02-08 04:52:00,26.0,0.0,29.97,NW,319,7.0,-999.0,31,-99.99,,,-99.99,,2013-02-08 11:52:00,
2013-02-08 05:02:00,27.0,-1.0,29.97,NW,324,7.0,-999.0,29,-99.99,,,-99.99,,2013-02-08 12:02:00,
2013-02-08 05:33:00,28.0,-2.0,29.97,NW,317,7.0,-999.0,26,-99.99,,,-99.99,,2013-02-08 12:33:00,
2013-02-08 05:42:00,28.0,-2.0,29.97,NW,317,7.0,-999.0,26,-99.99,,,-99.99,,2013-02-08 12:42:00,
2013-02-08 05:52:00,28.0,-2.0,29.97,NW,317,7.0,-999.0,26,-99.99,,,-99.99,,2013-02-08 12:52:00,
2013-02-08 06:01:00,30.0,-2.0,29.98,NW,323,5.0,-999.0,24,-99.99,,,-99.99,,2013-02-08 13:01:00,
2013-02-08 06:22:00,29.0,-2.0,29.97,NW,323,4.0,-999.0,25,-99.99,,,-99.99,,2013-02-08 13:22:00,
2013-02-08 06:32:00,31.0,-2.0,29.97,NW,321,7.0,-999.0,23,-99.99,,,-99.99,,2013-02-08 13:32:00,
2013-02-08 06:52:00,30.0,-3.0,29.97,NNW,333,7.0,-999.0,23,-99.99,,,-99.99,,2013-02-08 13:52:00,
2013-02-08 07:02:00,30.0,-3.0,29.97,NNW,333,7.0,-999.0,23,-99.99,,,-99.99,,2013-02-08 14:02:00,
2013-02-08 07:11:00,30.0,-3.0,29.97,NNW,333,7.0,-999.0,23,-99.99,,,-99.99,,2013-02-08 14:11:00,
2013-02-08 07:22:00,31.0,-2.0,29.96,NW,311,5.0,-999.0,23,-99.99,,,-99.99,,2013-02-08 14:22:00,
2013-02-08 07:32:00,31.0,-2.0,29.96,NW,311,5.0,-999.0,23,-99.99,,,-99.99,,2013-02-08 14:32:00,
2013-02-08 07:42:00,31.0,-2.0,29.96,NW,311,5.0,-999.0,23,-99.99,,,-99.99,,2013-02-08 14:42:00,
2013-02-08 07:52:00,31.0,-2.0,29.96,NW,311,5.0,-999.0,23,-99.99,,,-99.99,,2013-02-08 14:52:00,
2013-02-08 08:02:00,34.0,-1.0,29.96,NW,310,6.0,-999.0,22,-99.99,,,-99.99,,2013-02-08 15:02:00,
2013-02-08 08:11:00,34.0,-1.0,29.96,NW,310,6.0,-999.0,22,-99.99,,,-99.99,,2013-02-08 15:11:00,
2013-02-08 08:22:00,34.0,-1.0,29.96,NW,310,6.0,-999.0,22,-99.99,,,-99.99,,2013-02-08 15:22:00,
2013-02-08 08:32:00,36.0,1.0,29.94,NNW,334,8.0,-999.0,22,-99.99,,,-99.99,,2013-02-08 15:32:00,
2013-02-08 08:42:00,36.0,1.0,29.94,NNW,334,8.0,-999.0,22,-99.99,,,-99.99,,2013-02-08 15:42:00,
2013-02-08 08:52:00,36.0,1.0,29.94,NNW,334,8.0,-999.0,22,-99.99,,,-99.99,,2013-02-08 15:52:00,
2013-02-08 09:01:00,36.0,1.0,29.94,NNW,334,8.0,-999.0,22,-99.99,,,-99.99,,2013-02-08 16:01:00,
2013-02-08 09:11:00,36.0,1.0,29.94,NNW,334,8.0,-999.0,22,-99.99,,,-99.99,,2013-02-08 16:11:00,
2013-02-08 10:03:00,38.0,4.0,29.92,SE,131,1.0,-999.0,23,-99.99,,,-99.99,,2013-02-08 17:03:00,
2013-02-08 10:12:00,38.0,4.0,29.92,SE,131,1.0,-999.0,23,-99.99,,,-99.99,,2013-02-08 17:12:00,
2013-02-08 10:23:00,36.0,2.0,29.92,SE,132,1.0,-999.0,23,-99.99,,,-99.99,,2013-02-08 17:23:00,
2013-02-08 10:32:00,36.0,2.0,29.92,SE,132,1.0,-999.0,23,-99.99,,,-99.99,,2013-02-08 17:32:00,
2013-02-08 10:33:00,36.0,4.0,29.92,ESE,123,2.0,-999.0,25,-99.99,,,-99.99,,2013-02-08 17:33:00,
2013-02-08 10:42:00,36.0,2.0,29.92,SE,132,1.0,-999.0,23,-99.99,,,-99.99,,2013-02-08 17:42:00,
2013-02-08 10:53:00,36.0,4.0,29.92,ESE,123,2.0,-999.0,25,-99.99,,,-99.99,,2013-02-08 17:53:00,
2013-02-08 11:02:00,36.0,4.0,29.92,ESE,123,2.0,-999.0,25,-99.99,,,-99.99,,2013-02-08 18:02:00,
2013-02-08 11:12:00,36.0,4.0,29.92,ESE,123,2.0,-999.0,25,-99.99,,,-99.99,,2013-02-08 18:12:00,
2013-02-08 11:24:00,36.0,4.0,29.92,ESE,123,2.0,-999.0,25,-99.99,,,-99.99,,2013-02-08 18:24:00,
2013-02-08 11:53:00,37.0,4.0,29.91,East,100,4.0,-999.0,24,-99.99,,,-99.99,,2013-02-08 18:53:00,
2013-02-08 12:02:00,38.0,4.0,29.90,ESE,118,5.0,-999.0,24,-99.99,,,-99.99,,2013-02-08 19:02:00,
2013-02-08 12:11:00,38.0,4.0,29.90,ESE,118,5.0,-999.0,24,-99.99,,,-99.99,,2013-02-08 19:11:00,
2013-02-08 12:22:00,39.0,6.0,29.89,ESE,122,4.0,-999.0,25,-99.99,,,-99.99,,2013-02-08 19:22:00,
2013-02-08 12:32:00,39.0,6.0,29.89,ESE,122,4.0,-999.0,25,-99.99,,,-99.99,,2013-02-08 19:32:00,
2013-02-08 12:42:00,39.0,6.0,29.89,ESE,122,4.0,-999.0,25,-99.99,,,-99.99,,2013-02-08 19:42:00,
2013-02-08 12:52:00,39.0,6.0,29.89,ESE,122,4.0,-999.0,25,-99.99,,,-99.99,,2013-02-08 19:52:00,
2013-02-08 13:02:00,39.0,6.0,29.89,ESE,122,4.0,-999.0,25,-99.99,,,-99.99,,2013-02-08 20:02:00,
2013-02-08 13:52:00,44.0,3.0,29.84,SE,127,5.0,-999.0,18,-99.99,,,-99.99,,2013-02-08 20:52:00,
2013-02-08 14:02:00,44.0,4.0,29.83,SE,141,5.0,-999.0,19,-99.99,,,-99.99,,2013-02-08 21:02:00,
2013-02-08 14:11:00,44.0,4.0,29.83,SE,141,5.0,-999.0,19,-99.99,,,-99.99,,2013-02-08 21:11:00,
2013-02-08 14:22:00,44.0,3.0,29.82,ESE,110,5.0,-999.0,18,-99.99,,,-99.99,,2013-02-08 21:22:00,
2013-02-08 14:32:00,44.0,3.0,29.82,ESE,110,5.0,-999.0,18,-99.99,,,-99.99,,2013-02-08 21:32:00,
2013-02-08 14:42:00,44.0,3.0,29.82,ESE,110,5.0,-999.0,18,-99.99,,,-99.99,,2013-02-08 21:42:00,
2013-02-08 14:52:00,44.0,4.0,29.82,East,101,4.0,-999.0,19,-99.99,,,-99.99,,2013-02-08 21:52:00,
2013-02-08 15:01:00,44.0,4.0,29.82,East,101,4.0,-999.0,19,-99.99,,,-99.99,,2013-02-08 22:01:00,
2013-02-08 15:11:00,44.0,4.0,29.82,East,101,4.0,-999.0,19,-99.99,,,-99.99,,2013-02-08 22:11:00,
2013-02-08 15:22:00,44.0,4.0,29.82,East,101,4.0,-999.0,19,-99.99,,,-99.99,,2013-02-08 22:22:00,
2013-02-08 15:32:00,44.0,9.0,29.81,SE,124,3.0,-999.0,23,-99.99,,,-99.99,,2013-02-08 22:32:00,
2013-02-08 15:42:00,44.0,9.0,29.81,SE,124,3.0,-999.0,23,-99.99,,,-99.99,,2013-02-08 22:42:00,
2013-02-08 15:52:00,44.0,10.0,29.81,ESE,114,1.0,-999.0,24,-99.99,,,-99.99,,2013-02-08 22:52:00,
2013-02-08 16:01:00,44.0,10.0,29.81,ESE,114,1.0,-999.0,24,-99.99,,,-99.99,,2013-02-08 23:01:00,
2013-02-08 16:11:00,44.0,10.0,29.81,ESE,114,1.0,-999.0,24,-99.99,,,-99.99,,2013-02-08 23:11:00,
2013-02-08 16:21:00,44.0,10.0,29.81,ESE,114,1.0,-999.0,24,-99.99,,,-99.99,,2013-02-08 23:21:00,
2013-02-08 16:31:00,44.0,10.0,29.81,ESE,114,1.0,-999.0,24,-99.99,,,-99.99,,2013-02-08 23:31:00,
2013-02-08 17:02:00,40.0,7.0,29.78,SE,124,1.0,-999.0,25,-99.99,,,-99.99,,2013-02-09 00:02:00,
2013-02-08 17:11:00,40.0,7.0,29.78,SE,124,1.0,-999.0,25,-99.99,,,-99.99,,2013-02-09 00:11:00,
2013-02-08 17:22:00,40.0,7.0,29.78,SE,124,1.0,-999.0,25,-99.99,,,-99.99,,2013-02-09 00:22:00,
2013-02-08 17:32:00,40.0,7.0,29.78,SE,124,1.0,-999.0,25,-99.99,,,-99.99,,2013-02-09 00:32:00,
2013-02-08 17:42:00,40.0,7.0,29.78,SE,124,1.0,-999.0,25,-99.99,,,-99.99,,2013-02-09 00:42:00,
2013-02-08 17:52:00,37.0,8.0,29.78,SE,124,0.0,-999.0,29,-99.99,,,-99.99,,2013-02-09 00:52:00,
2013-02-08 18:01:00,37.0,8.0,29.78,SE,124,0.0,-999.0,29,-99.99,,,-99.99,,2013-02-09 01:01:00,
2013-02-08 18:11:00,37.0,8.0,29.78,SE,124,0.0,-999.0,29,-99.99,,,-99.99,,2013-02-09 01:11:00,
2013-02-08 18:21:00,37.0,8.0,29.78,SE,124,0.0,-999.0,29,-99.99,,,-99.99,,2013-02-09 01:21:00,
2013-02-08 18:32:00,37.0,8.0,29.78,SE,124,0.0,-999.0,29,-99.99,,,-99.99,,2013-02-09 01:32:00,
2013-02-08 18:41:00,37.0,8.0,29.78,SE,124,0.0,-999.0,29,-99.99,,,-99.99,,2013-02-09 01:41:00,
2013-02-08 18:52:00,36.0,7.0,29.77,SE,124,0.0,-999.0,29,-99.99,,,-99.99,,2013-02-09 01:52:00,
2013-02-08 19:01:00,36.0,8.0,29.77,SE,124,0.0,-999.0,30,-99.99,,,-99.99,,2013-02-09 02:01:00,
2013-02-08 19:11:00,36.0,8.0,29.77,SE,124,0.0,-999.0,30,-99.99,,,-99.99,,2013-02-09 02:11:00,
2013-02-08 19:21:00,36.0,8.0,29.77,SE,124,0.0,-999.0,30,-99.99,,,-99.99,,2013-02-09 02:21:00,
2013-02-08 19:32:00,36.0,8.0,29.77,SE,124,0.0,-999.0,30,-99.99,,,-99.99,,2013-02-09 02:32:00,
2013-02-08 19:42:00,36.0,8.0,29.77,SE,124,0.0,-999.0,30,-99.99,,,-99.99,,2013-02-09 02:42:00,
2013-02-08 19:53:00,34.0,9.0,29.77,SE,124,0.0,-999.0,35,-99.99,,,-99.99,,2013-02-09 02:53:00,
2013-02-08 20:02:00,34.0,10.0,29.76,SE,124,0.0,-999.0,36,-99.99,,,-99.99,,2013-02-09 03:02:00,
2013-02-08 20:11:00,34.0,10.0,29.76,SE,124,0.0,-999.0,36,-99.99,,,-99.99,,2013-02-09 03:11:00,
2013-02-08 20:21:00,34.0,10.0,29.76,SE,124,0.0,-999.0,36,-99.99,,,-99.99,,2013-02-09 03:21:00,
2013-02-08 20:32:00,34.0,10.0,29.75,SE,124,0.0,-999.0,36,-99.99,,,-99.99,,2013-02-09 03:32:00,
2013-02-08 20:42:00,34.0,10.0,29.75,SE,124,0.0,-999.0,36,-99.99,,,-99.99,,2013-02-09 03:42:00,
2013-02-08 20:53:00,34.0,10.0,29.75,SE,124,0.0,-999.0,36,-99.99,,,-99.99,,2013-02-09 03:53:00,
2013-02-08 21:02:00,32.0,9.0,29.74,SE,124,0.0,-999.0,38,-99.99,,,-99.99,,2013-02-09 04:02:00,
2013-02-08 21:12:00,32.0,9.0,29.74,SE,124,1.0,-999.0,37,-99.99,,,-99.99,,2013-02-09 04:12:00,
2013-02-08 21:23:00,32.0,9.0,29.74,SE,124,1.0,-999.0,37,-99.99,,,-99.99,,2013-02-09 04:23:00,
2013-02-08 21:32:00,32.0,10.0,29.74,SE,124,1.0,-999.0,40,-99.99,,,-99.99,,2013-02-09 04:32:00,
2013-02-08 21:42:00,32.0,10.0,29.74,SE,124,1.0,-999.0,40,-99.99,,,-99.99,,2013-02-09 04:42:00,
2013-02-08 21:52:00,32.0,10.0,29.74,SE,124,1.0,-999.0,40,-99.99,,,-99.99,,2013-02-09 04:52:00,
2013-02-08 22:02:00,31.0,9.0,29.75,ENE,60,4.0,-999.0,39,-99.99,,,-99.99,,2013-02-09 05:02:00,
2013-02-08 22:12:00,31.0,9.0,29.75,ENE,60,4.0,-999.0,39,-99.99,,,-99.99,,2013-02-09 05:12:00,
2013-02-08 22:22:00,31.0,9.0,29.75,ENE,60,4.0,-999.0,39,-99.99,,,-99.99,,2013-02-09 05:22:00,
2013-02-08 22:32:00,31.0,9.0,29.75,ENE,60,4.0,-999.0,39,-99.99,,,-99.99,,2013-02-09 05:32:00,
2013-02-08 22:42:00,31.0,9.0,29.75,ENE,60,4.0,-999.0,39,-99.99,,,-99.99,,2013-02-09 05:42:00,
2013-02-08 23:32:00,29.0,8.0,29.74,NW,318,4.0,-999.0,41,-99.99,,,-99.99,,2013-02-09 06:32:00,
2013-02-08 23:42:00,29.0,8.0,29.74,NW,318,4.0,-999.0,41,-99.99,,,-99.99,,2013-02-09 06:42:00,
2013-02-08 23:52:00,29.0,8.0,29.75,NW,323,5.0,-999.0,40,-99.99,,,-99.99,,2013-02-09 06:52:00,